Voltar ao catálogo

STARLINK-31532

AtivoComunicaçõesVLEO
NORAD 59349·PAYLOAD·🇺🇸 United States

Lançado Mar 31, 2024 de Cape Canaveral Space Force Station

Loading…

Próximas Passagens (próximas 24 horas)

TLE

AtualizadoSource: CelesTrak SupGP

Época: Sep 14, 2026, 21:18 UTC

1 59349C 24060B   26257.88798611  .00016871  00000+0  61129-3 0  2573
2 59349  42.9998 271.3707 0001513 266.6165 257.7694 15.27558181    16

Acompanhe STARLINK-31532 em tempo real com AllMySat

Download on the App Store